Home   Weather   Kampala   Past weeks

Flag for Uganda Past Weather in Kampala, Uganda — Yesterday and Last 2 Weeks

Now
79 °F

Partly sunny.


Feels Like: 80 °F
Forecast: 57 / 83 °F
Wind: 10 mph from Southeast

Location: Entebbe Airport

Current Time: Dec 5, 2016 at 5:50:02 pm

Latest Report: Dec 5, 2016 at 5:00 pm


Visibility: N/A

Pressure: 29.98 "Hg (26.05 "Hg at 1230m altitude)

Humidity: 58%

Dew Point: 63 °F

Location of KampalaLocation

Past Weather in Kampala — Graph

°F

Kampala Temperature Yesterday

Maximum temperature yesterday: 79 °F (at 3:00 pm)
Minimum temperature yesterday: 68 °F (at 6:00 am)
Average temperature yesterday: 73 °F

High & Low Weather Summary for the Past Weeks

 TemperatureHumidityPressure
High86 °F (Nov 24, 3:00 pm)100% (Nov 28, 4:00 am)30.12 "Hg (Nov 28, 4:00 am)
Low63 °F (Dec 3, 6:00 am)46% (Nov 24, 3:00 pm)29.89 "Hg (Nov 21, 6:00 pm)
Average74 °F80%30.02 "Hg
* Reported Nov 20 4:00 pm — Dec 5 4:00 pm, Kampala, Weather by CustomWeather, © 2016

Note: Actual official high and low records may vary slightly from our data, if they occured in-between our weather recording intervals... More about our weather records

Advertising

Kampala Weather History for the Previous 24 Hours

Scroll right to see more
 ConditionsComfort  
Time TempWeatherWind HumidityBarometerVisibility
4:00 pm
Mon, Dec 5
79 °FPartly sunny.13 mph58%29.98 "HgN/A
3:00 pm79 °FPartly sunny.10 mph58%30.01 "HgN/A
2:00 pm79 °FPartly sunny.13 mph61%30.04 "HgN/A
1:00 pm79 °FScattered clouds.9 mph65%30.07 "HgN/A
12:00 pm75 °FPartly sunny.No wind74%30.07 "HgN/A
11:00 am73 °FBroken clouds.6 mph83%30.09 "HgN/A
10:00 am73 °FLight rain. Broken clouds.6 mph83%30.09 "Hg6 mi
9:00 am70 °FLight rain. Broken clouds.No wind88%30.09 "Hg6 mi
8:00 am68 °FScattered clouds.5 mph94%30.07 "Hg6 mi
7:00 am68 °FThunderstorms. Cloudy.7 mph94%30.04 "Hg6 mi
6:00 am68 °FMild.5 mph94%30.04 "HgN/A
4:00 am68 °FPassing clouds.5 mph94%30.01 "HgN/A
3:00 am70 °FPassing clouds.6 mph88%30.01 "HgN/A
2:00 am70 °FPassing clouds.7 mph94%30.01 "HgN/A
1:00 am70 °FPassing clouds.6 mph94%30.01 "HgN/A
12:00 am70 °FPassing clouds.5 mph94%30.01 "HgN/A
11:00 pm
Sun, Dec 4
72 °FPassing clouds.5 mph83%30.01 "HgN/A
10:00 pm73 °FPassing clouds.3 mph78%30.01 "HgN/A
9:00 pm73 °FPassing clouds.6 mph78%30.01 "HgN/A
8:00 pm73 °FPassing clouds.7 mph83%29.98 "HgN/A
7:00 pm75 °FPassing clouds.6 mph78%29.98 "HgN/A
6:00 pm77 °FScattered clouds.10 mph69%29.98 "HgN/A
5:00 pm79 °FScattered clouds.13 mph65%30.01 "HgN/A
Weather by CustomWeather, © 2016

See weather overviewHow to use our weather pages